Weather History for Marshfield, MA

Change the Weather History Date:

Monday, January 21, 2013

  Actual Average (KPYM) Record (KPYM)
Temperature  
Mean Temperature 28 °F -  
Max Temperature 32 °F 35 °F 57 °F (1951)
Min Temperature 24 °F 15 °F -5 °F (1984)
Degree Days  
Heating Degree Days 37    
Moisture  
Dew Point 12 °F    
Average Humidity 53    
Maximum Humidity 93    
Minimum Humidity 34    
Precipitation  
Precipitation 0.00 in - - ()
Sea Level Pressure  
Sea Level Pressure 30.00 in    
Wind  
Wind Speed 6 mph (WSW)    
Max Wind Speed 13 mph    
Max Gust Speed 21 mph    
Visibility 8 miles    
Events Rain , Snow    
Averages and records for this station are not official NWS values.
T = Trace of Precipitation, MM = Missing Value Source: NWS Daily Summary

Daily Weather History Graph

Daily Weather History Graph

Search for Another Location

Airport:

Trip Planner

Search our weather history database for the weather conditions in past years. The results will help you decide how hot, cold, wet, or windy it might be!

Date:

Astronomy

Jan. 21, 2013 Rise Set
Actual Time 7:04 AM EST 4:43 PM EST
Civil Twilight 6:34 AM EST 5:14 PM EST
Nautical Twilight 6:00 AM EST 5:48 PM EST
Astronomical Twilight 5:27 AM EST 6:21 PM EST
Moon 12:21 PM EST (1/21) 2:30 AM EST (1/21)
Length of Visible Light 10h 39m
Length of Day
9h 38m
Waxing Gibbous, 75% of the Moon is Illuminated
Jan 21
Waxing Gibbous
Jan 26
Full
Feb 3
Last Quarter
Feb 10
New
Feb 17
First Quarter

Hourly Weather History & Observations

Time (EST) Temp. Windchill Dew Point Humidity Pressure Visibility Wind Dir Wind Speed Gust Speed Precip Events Conditions
12:15 AM 32.0 °F 23.6 °F 10.4 °F 41% 29.94 in 10.0 mi West 10.4 mph 18.4 mph N/A   Clear
12:35 AM 32.0 °F 24.2 °F 10.4 °F 41% 29.94 in 10.0 mi West 9.2 mph 18.4 mph N/A   Clear
12:55 AM 32.0 °F 25.6 °F 10.4 °F 41% 29.95 in 10.0 mi West 6.9 mph - N/A   Clear
1:15 AM 30.2 °F 26.7 °F 10.4 °F 44% 29.96 in 10.0 mi WSW 3.5 mph - N/A   Clear
1:35 AM 30.2 °F - 10.4 °F 44% 29.98 in 10.0 mi Calm Calm - N/A   Clear
1:55 AM 30.2 °F 25.4 °F 10.4 °F 44% 29.99 in 10.0 mi West 4.6 mph - N/A   Clear
2:15 AM 30.2 °F 24.3 °F 12.2 °F 47% 30.01 in 10.0 mi West 5.8 mph - N/A   Clear
2:35 AM 30.2 °F 21.3 °F 12.2 °F 47% 30.01 in 10.0 mi WSW 10.4 mph 18.4 mph N/A   Clear
2:55 AM 30.2 °F 21.3 °F 8.6 °F 40% 30.01 in 10.0 mi West 10.4 mph 18.4 mph N/A   Clear
3:15 AM 28.4 °F 18.0 °F 8.6 °F 43% 30.02 in 10.0 mi West 12.7 mph 16.1 mph N/A   Clear
3:55 AM 28.4 °F 18.5 °F 5.0 °F 37% 30.03 in 10.0 mi West 11.5 mph 20.7 mph N/A   Clear
4:15 AM 28.4 °F 21.2 °F 5.0 °F 37% 30.04 in 10.0 mi West 6.9 mph 18.4 mph N/A   Clear
4:35 AM 28.4 °F 19.7 °F 5.0 °F 37% 30.05 in 10.0 mi West 9.2 mph - N/A   Clear
4:55 AM 26.6 °F 21.2 °F 6.8 °F 43% 30.05 in 10.0 mi West 4.6 mph - N/A   Clear
5:15 AM 26.6 °F 19.1 °F 6.8 °F 43% 30.05 in 10.0 mi West 6.9 mph - N/A   Clear
5:35 AM 26.6 °F 20.0 °F 6.8 °F 43% 30.06 in 10.0 mi West 5.8 mph - N/A   Clear
5:55 AM 26.6 °F 22.6 °F 6.8 °F 43% 30.07 in 10.0 mi West 3.5 mph - N/A   Clear
6:15 AM 26.6 °F 22.6 °F 6.8 °F 43% 30.08 in 10.0 mi WSW 3.5 mph - N/A   Clear
6:35 AM 24.8 °F 20.5 °F 6.8 °F 46% 30.08 in 10.0 mi SW 3.5 mph - N/A   Clear
6:55 AM 24.8 °F 20.5 °F 6.8 °F 46% 30.09 in 10.0 mi WSW 3.5 mph - N/A   Clear
7:15 AM 24.8 °F 20.5 °F 6.8 °F 46% 30.08 in 10.0 mi WSW 3.5 mph - N/A   Clear
7:35 AM 24.8 °F 20.5 °F 8.6 °F 50% 30.09 in 10.0 mi WSW 3.5 mph - N/A   Clear
7:55 AM 26.6 °F - 6.8 °F 43% 30.10 in 10.0 mi Calm Calm - N/A   Clear
8:15 AM 26.6 °F 21.2 °F 6.8 °F 43% 30.11 in 10.0 mi WSW 4.6 mph - N/A   Partly Cloudy
8:35 AM 26.6 °F 21.2 °F 6.8 °F 43% 30.12 in 10.0 mi SSW 4.6 mph - N/A   Mostly Cloudy
8:55 AM 26.6 °F 21.2 °F 6.8 °F 43% 30.12 in 10.0 mi SW 4.6 mph - N/A   Partly Cloudy
9:15 AM 28.4 °F 22.2 °F 5.0 °F 37% 30.12 in 10.0 mi WSW 5.8 mph - N/A   Clear
9:35 AM 28.4 °F 23.3 °F 5.0 °F 37% 30.12 in 10.0 mi WSW 4.6 mph - N/A   Clear
9:55 AM 30.2 °F 23.4 °F 5.0 °F 34% 30.12 in 10.0 mi WSW 6.9 mph - N/A   Clear
10:15 AM 30.2 °F 23.4 °F 5.0 °F 34% 30.11 in 10.0 mi West 6.9 mph - N/A   Partly Cloudy
10:35 AM 30.2 °F 25.4 °F 5.0 °F 34% 30.11 in 10.0 mi West 4.6 mph - N/A   Scattered Clouds
10:55 AM 30.2 °F 24.3 °F 5.0 °F 34% 30.10 in 10.0 mi WSW 5.8 mph - N/A   Scattered Clouds
11:15 AM 30.2 °F 23.4 °F 5.0 °F 34% 30.08 in 10.0 mi WSW 6.9 mph - N/A   Scattered Clouds
11:35 AM 30.2 °F 23.4 °F 5.0 °F 34% 30.06 in 10.0 mi West 6.9 mph - N/A   Clear
11:55 AM 30.2 °F 26.7 °F 5.0 °F 34% 30.05 in 10.0 mi WSW 3.5 mph - N/A   Clear
12:15 PM 30.2 °F 25.4 °F 5.0 °F 34% 30.04 in 10.0 mi SW 4.6 mph - N/A   Clear
12:55 PM 30.2 °F 25.4 °F 5.0 °F 34% 30.02 in 10.0 mi SW 4.6 mph - N/A   Clear
1:15 PM 30.2 °F 21.9 °F 6.8 °F 37% 30.02 in 10.0 mi SW 9.2 mph - N/A   Clear
1:35 PM 30.2 °F 23.4 °F 5.0 °F 34% 30.02 in 10.0 mi WSW 6.9 mph - N/A   Clear
1:55 PM 30.2 °F 26.7 °F 6.8 °F 37% 30.00 in 10.0 mi West 3.5 mph - N/A   Clear
2:15 PM 30.2 °F 24.3 °F 6.8 °F 37% 30.01 in 10.0 mi SW 5.8 mph - N/A   Scattered Clouds
2:35 PM 30.2 °F 24.3 °F 8.6 °F 40% 30.00 in 10.0 mi SW 5.8 mph - N/A   Scattered Clouds
2:55 PM 30.2 °F 25.4 °F 6.8 °F 37% 29.99 in 10.0 mi WSW 4.6 mph - N/A   Mostly Cloudy
3:15 PM 30.2 °F 26.7 °F 8.6 °F 40% 29.99 in 10.0 mi South 3.5 mph - N/A   Overcast
3:35 PM 30.2 °F 24.3 °F 8.6 °F 40% 29.98 in 10.0 mi SSW 5.8 mph - N/A   Overcast
3:55 PM 30.2 °F 24.3 °F 8.6 °F 40% 29.97 in 10.0 mi SSW 5.8 mph - N/A   Overcast
4:15 PM 30.2 °F 25.4 °F 8.6 °F 40% 29.97 in 10.0 mi SW 4.6 mph - N/A   Overcast
4:35 PM 30.2 °F 25.4 °F 10.4 °F 44% 29.96 in 10.0 mi SSW 4.6 mph - N/A   Overcast
4:55 PM 30.2 °F 26.7 °F 10.4 °F 44% 29.95 in 10.0 mi SSW 3.5 mph - N/A   Overcast
5:15 PM 30.2 °F - 10.4 °F 44% 29.95 in 10.0 mi Calm Calm - N/A   Overcast
5:35 PM 30.2 °F 26.7 °F 14.0 °F 51% 29.95 in 10.0 mi SW 3.5 mph - N/A   Overcast
5:55 PM 30.2 °F - 17.6 °F 60% 29.94 in 10.0 mi Calm Calm - N/A   Overcast
6:15 PM 28.4 °F 23.3 °F 19.4 °F 69% 29.95 in 10.0 mi SSE 4.6 mph - N/A   Overcast
6:35 PM 28.4 °F 24.6 °F 21.2 °F 74% 29.96 in 2.5 mi South 3.5 mph - N/A Snow Light Snow
6:55 PM 28.4 °F - 24.8 °F 86% 29.95 in 1.5 mi Calm Calm - N/A Snow Light Snow
7:15 PM 28.4 °F - 24.8 °F 86% 29.95 in 1.8 mi Calm Calm - N/A Snow Light Snow
7:35 PM 28.4 °F - 24.8 °F 86% 29.94 in 2.0 mi Calm Calm - N/A Snow Light Snow
7:55 PM 26.6 °F - 24.8 °F 93% 29.93 in 1.5 mi Calm Calm - N/A Snow Light Snow
8:15 PM 26.6 °F - 24.8 °F 93% 29.92 in 1.8 mi Calm Calm - N/A Snow Light Snow
8:35 PM 28.4 °F - 24.8 °F 86% 29.92 in 3.0 mi Calm Calm - N/A Snow Light Snow
8:55 PM 28.4 °F - 24.8 °F 86% 29.92 in 2.5 mi Calm Calm - N/A Snow Light Snow
9:15 PM 28.4 °F - 24.8 °F 86% 29.90 in 3.0 mi Calm Calm - N/A Snow Light Snow
9:35 PM 28.4 °F 24.6 °F 26.6 °F 93% 29.89 in 4.0 mi NW 3.5 mph - N/A Snow Light Snow
9:55 PM 28.4 °F - 26.6 °F 93% 29.88 in 5.0 mi Calm Calm - N/A   Overcast
10:15 PM 28.4 °F - 26.6 °F 93% 29.87 in 5.0 mi Calm Calm - N/A   Overcast
10:35 PM 28.4 °F - 26.6 °F 93% 29.85 in 3.0 mi Calm Calm - N/A Snow Light Snow
10:55 PM 28.4 °F - 26.6 °F 93% 29.84 in 3.0 mi Calm Calm - N/A Snow Light Snow
11:15 PM 28.4 °F - 26.6 °F 93% 29.82 in 4.0 mi Calm Calm - N/A Snow Light Snow
11:35 PM 28.4 °F - 26.6 °F 93% 29.80 in 6.0 mi Calm Calm - N/A Rain Light Freezing Rain
11:55 PM 30.2 °F - 26.6 °F 86% 29.79 in 6.0 mi Calm Calm - N/A Snow Light Snow